STARLINK-30255 (57606 NORAD) Tracking and Keplerian Element Data

This shows tracking and keplerian element data for the satellite.

Feedback or suggestion? Click here.




ElementValue
Catalog57606
NameSTARLINK-30255
Epoch Orbit2474
Epoch Day13.09257477
Epoch Year2024
RAAN35.5528
Inclination43.0034
Eccentricity7.37E-05
Argument of Perigee242.2645
Mean Anonmoly117.8123
Mean Motion15.02517917
Decay Rate-3.285E-05
L11 57606U 23119E 24013.09257477 -.00003285 00000+0 -22835-3 0 9993
L22 57606 43.0034 35.5528 0000737 242.2645 117.8123 15.02517917 24748



Live tracking and technical data element details for STARLINK-30255 (NORAD 57606). STARLINK-30255 can be tracked NOW for your location showing map with azimuth and elevation plus other details from your city location.







IsCatalogInMostPopularTable: catalog: 57606, numindb: 25
Update: records affected: 1



GetName: 57606 STARLINK-30255

Hit Count: updated at: Thu, 22 Feb 2024 00:28:49 GMT